This is the latest recevied weather packets stored in our database for station/object N3EG. If no packets are shown the sender has not sent any weather packets the latest 10 day(s).
| Time | Temp. | Humidity | Pressure | Rain* | Wind** | Luminosity | Snow |
|---|---|---|---|---|---|---|---|
| 1788394506 | 16.67° C | 91% | 1006.6 hPa | 0 mm | - | - | - |
| 1788394202 | 16.11° C | 91% | 1006.5 hPa | 0 mm | - | - | - |
| 1788393903 | 16.11° C | 90% | 1006.5 hPa | 0 mm | - | - | - |
| 1788393603 | 16.11° C | 90% | 1006.5 hPa | 0 mm | - | - | - |
| 1788393302 | 16.11° C | 91% | 1006.4 hPa | 0 mm | - | - | - |
| 1788393003 | 16.11° C | 92% | 1006.4 hPa | 0 mm | - | - | - |
| 1788392702 | 16.11° C | 92% | 1006.5 hPa | 0 mm | - | - | - |
| 1788392402 | 16.11° C | 91% | 1006.4 hPa | 0 mm | - | - | - |
| 1788392103 | 16.11° C | 93% | 1006.4 hPa | 0 mm | - | - | - |
| 1788391802 | 16.11° C | 93% | 1006.3 hPa | 0 mm | - | - | - |
| 1788391502 | 16.11° C | 94% | 1006.3 hPa | 0 mm | - | - | - |
| 1788391203 | 15.56° C | 94% | 1006.4 hPa | 0 mm | - | - | - |
| 1788390902 | 15.56° C | 94% | 1006.5 hPa | 0 mm | - | - | - |
| 1788390602 | 15° C | 94% | 1006.4 hPa | 0 mm | - | - | - |
| 1788390303 | 15° C | 94% | 1006.4 hPa | 0 mm | - | - | - |
| 1788390002 | 14.44° C | 93% | 1006.5 hPa | 2.79 mm | - | - | - |
| 1788389703 | 14.44° C | 93% | 1006.4 hPa | 2.79 mm | - | - | - |
| 1788389403 | 14.44° C | 93% | 1006.5 hPa | 2.79 mm | - | - | - |
| 1788389102 | 14.44° C | 93% | 1006.3 hPa | 2.79 mm | - | - | - |
| 1788388803 | 14.44° C | 92% | 1006.2 hPa | 2.79 mm | - | - | - |
| 1788388502 | 14.44° C | 91% | 1006.2 hPa | 2.54 mm | - | - | - |
| 1788388202 | 15° C | 90% | 1006.2 hPa | 2.29 mm | - | - | - |
| 1788387903 | 15.56° C | 92% | 1006.3 hPa | 1.02 mm | - | - | - |
| 1788387602 | 16.11° C | 93% | 1006 hPa | 0 mm | - | - | - |
| 1788387302 | 16.11° C | 93% | 1005.4 hPa | 0 mm | - | - | - |
* Rain latest hour (hover to see other rain measurements)
** Current wind speed in m/s (hover to see current wind gust speed)